#timestamp,LO_Frequency,Hit,StdDev 
1617944415.9,286047001.6,N
1617944435.7,286047004.1,Y
1617944455.6,286047000.1,P
1617944475.4,286047002.8,P
1617944495.2,286047001.9,N
1617944515.1,286047001.8,N
1617944516.0,286047001.8,N
1617944535.8,286047002.6,Y
1617944555.7,286047000.0,P
1617944575.5,286047000.0,N
1617944595.3,286047001.2,N
1617944615.2,286046999.9,N
1617944635.0,286046999.8,N
1617944635.9,286046999.8,N
1617944655.8,286046999.0,N
1617944675.6,286047001.0,N
1617944695.4,286047002.6,Y
1617944715.3,286047002.1,P
1617944735.1,286047001.2,N
1617944755.9,286046999.9,N
1617944775.7,286046998.6,N
1617944795.5,286046998.4,N
1617944815.4,286046998.4,N
1617944835.2,286046999.2,N
1617944855.0,286046997.7,N
1617944855.9,286046997.7,N
1617944875.8,286046999.6,N
1617944895.6,286046999.1,N
1617944915.5,286047000.4,N
1617944935.3,286047001.7,N
1617944955.1,286047002.0,N
1617944975.9,286047000.0,N
1617944995.7,286047000.7,N
1617945015.5,286047001.0,N
1617945035.4,286046998.8,N
1617945055.2,286046999.0,N
1617945075.1,286046998.9,N
1617945076.0,286046998.9,N
1617945095.8,286047000.9,N
1617945115.6,286046999.5,N
1617945135.5,286046996.9,N
1617945155.3,286046999.2,N
1617945175.1,286046997.9,N
1617945195.9,286046999.6,N
1617945215.7,286046996.6,N
1617945235.6,286046998.3,N
1617945255.4,286046997.0,N
1617945275.2,286046998.9,N
1617945295.1,286046998.3,N
1617945296.0,286046998.3,N
1617945315.8,286046998.7,N
1617945335.7,286046999.2,N
1617945355.5,286046997.8,N
1617945375.3,286046998.0,N
1617945395.2,286046998.0,N
1617945415.0,286046996.8,N
1617945415.9,286046996.8,N
1617945435.8,286046999.4,N
1617945455.6,286046998.1,N
1617945475.4,286046999.2,N
1617945495.3,286046997.0,N
1617945515.1,286046996.7,N
1617945516.0,286046996.7,N
1617945535.8,286046997.5,N
1617945555.7,286046997.3,N
1617945575.5,286046995.9,Y
1617945595.4,286046997.2,P
1617945615.2,286046996.8,P
1617945635.0,286046997.7,P
1617945635.9,286046997.7,Y
1617945655.8,286047001.9,P
1617945675.6,286047002.4,N
1617945695.4,286047002.2,N
1617945715.3,286047002.4,N
1617945735.1,286047001.1,N
1617945755.9,286047000.5,N
1617945775.7,286047001.0,N
1617945795.5,286046998.7,N
1617945815.4,286046999.3,N
1617945835.2,286046997.0,N
1617945855.1,286046997.0,N
1617945856.0,286046997.0,N
1617945875.8,286046997.4,N
1617945895.6,286046997.2,N
1617945915.5,286046996.8,N
1617945935.3,286046996.5,N
1617945955.2,286046997.3,N
1617945975.9,286046997.5,N
1617945995.7,286046996.5,N
1617946015.6,286046996.7,N
1617946035.4,286046996.9,N
1617946055.2,286046997.6,N
1617946075.1,286046997.8,N
1617946076.0,286046997.8,N
1617946095.8,286046995.4,N
1617946115.7,286046993.3,Y
1617946135.5,286046993.4,P
1617946155.3,286046995.0,N
1617946175.2,286046996.6,N
1617946195.0,286046997.8,N
1617946195.9,286046997.8,N
1617946215.8,286046997.5,N
1617946235.6,286046998.6,N
1617946255.4,286046998.9,N
1617946275.3,286046999.1,N
1617946295.1,286046998.9,N
1617946315.9,286046996.6,N
1617946335.7,286046998.2,N
1617946355.5,286047001.8,N
1617946375.4,286047002.1,N
1617946395.2,286047000.5,N
1617946415.0,286047002.1,N
1617946415.9,286047002.1,N
1617946435.8,286047002.6,N
1617946455.6,286047000.4,N
1617946475.5,286047000.7,N
1617946495.3,286046998.5,N
1617946515.1,286046998.4,N
1617946535.9,286046998.7,N
1617946555.7,286046999.0,N
1617946575.5,286047000.9,N
1617946595.4,286046998.4,N
1617946615.2,286047001.2,N
1617946635.1,286047001.2,N
1617946636.0,286047001.2,N
1617946655.8,286046996.6,N
1617946675.6,286046999.3,N
1617946695.5,286046998.4,N
1617946715.3,286046998.5,N
1617946735.2,286046998.6,N
1617946755.9,286046996.5,N
1617946775.7,286046999.0,N
1617946795.6,286047001.1,N
1617946815.4,286046998.6,N
1617946835.2,286046996.6,N
1617946855.1,286046996.6,N
1617946856.0,286046996.6,N
1617946875.8,286046999.3,N
1617946895.7,286046996.5,N
1617946915.5,286046999.2,N
1617946935.3,286046999.6,N
1617946955.2,286046997.5,N
1617946975.0,286046997.3,N
1617946975.9,286046997.3,N
1617946995.8,286046998.0,N
1617947015.6,286046999.2,N
1617947035.4,286046997.8,N
1617947055.3,286046998.0,N
1617947075.1,286046997.7,N
1617947095.8,286046997.2,N
1617947115.7,286046997.9,N
1617947135.5,286046997.5,N
1617947155.4,286046997.6,N
1617947175.2,286046997.5,N
1617947195.0,286046997.7,N
1617947195.9,286046997.7,N
1617947215.8,286046997.7,N
1617947235.6,286046994.9,Y
1617947255.5,286046999.5,P
1617947275.3,286046998.3,N
1617947295.1,286046998.6,N
1617947315.9,286046998.2,Y
1617947335.7,286047000.1,P
1617947355.5,286047000.3,N
1617947375.4,286046999.7,N
1617947395.2,286046999.7,N
1617947415.1,286047001.2,N
1617947416.0,286047001.2,N
1617947435.8,286046999.4,N
1617947455.6,286046997.2,Y
1617947475.5,286046999.5,P
1617947495.3,286047000.8,N
1617947515.1,286047001.8,P
1617947535.9,286046999.7,N
1617947555.7,286047002.5,N
1617947575.6,286046998.4,N
1617947595.4,286046996.7,N
1617947615.2,286046997.2,N
1617947635.1,286046998.7,N
1617947636.0,286046998.7,N
1617947655.8,286046998.3,N
1617947675.6,286047000.3,N
1617947695.5,286047002.1,N
1617947715.3,286047003.8,N
1617947735.2,286047003.6,N
1617947755.9,286047007.4,Y
1617947775.7,286047007.1,P
1617947795.6,286047006.0,N
1617947815.4,286047004.8,N
1617947835.2,286047004.5,N
1617947855.1,286047006.3,N
1617947856.0,286047006.3,N
1617947875.8,286047007.1,Y
1617947895.7,286047002.7,P
1617947915.5,286047002.2,N
1617947935.3,286047002.5,N
1617947955.2,286047002.3,N
1617947975.0,286047001.6,N
1617947975.9,286047001.6,N
1617947995.7,286047002.0,N
